Time,TemperatureF,DewpointF,PressureIn,WindDirection,WindDirectionDegrees,WindSpeedMPH,WindSpeedGustMPH,Humidity,HourlyPrecipIn,Conditions,Clouds,dailyrainin,SoftwareType,DateUTC
2013-03-20 00:14:00,49.8,48.0,30.07,SSE,163,0.0,-999.0,94,-99.99,,,0.00,weatherlink.com 1.10,2013-03-20 07:14:00,
2013-03-20 00:29:00,49.8,48.0,30.08,SSE,163,0.0,-999.0,94,-99.99,,,0.00,weatherlink.com 1.10,2013-03-20 07:29:00,
2013-03-20 00:44:00,49.8,48.0,30.09,SSE,163,0.0,-999.0,94,-99.99,,,0.00,weatherlink.com 1.10,2013-03-20 07:44:00,
2013-03-20 00:59:00,49.9,48.0,30.09,SSE,163,0.0,-999.0,94,-99.99,,,0.00,weatherlink.com 1.10,2013-03-20 07:59:00,
2013-03-20 01:14:00,49.9,48.0,30.09,SSE,163,0.0,-999.0,94,-99.99,,,0.00,weatherlink.com 1.10,2013-03-20 08:14:00,
2013-03-20 01:29:00,50.1,49.0,30.09,SSE,163,0.0,-999.0,94,-99.99,,,0.00,weatherlink.com 1.10,2013-03-20 08:29:00,
2013-03-20 01:44:00,50.1,49.0,30.09,SSE,163,0.0,-999.0,94,-99.99,,,0.00,weatherlink.com 1.10,2013-03-20 08:44:00,
2013-03-20 01:59:00,50.1,49.0,30.09,SSE,163,0.0,-999.0,94,-99.99,,,0.00,weatherlink.com 1.10,2013-03-20 08:59:00,
2013-03-20 02:14:00,49.9,48.0,30.09,SSE,163,0.0,-999.0,94,-99.99,,,0.00,weatherlink.com 1.10,2013-03-20 09:14:00,
2013-03-20 02:29:00,49.9,48.0,30.09,SSE,163,0.0,-999.0,94,-99.99,,,0.01,weatherlink.com 1.10,2013-03-20 09:29:00,
2013-03-20 02:44:00,49.8,48.0,30.09,SSE,163,0.0,-999.0,94,-99.99,,,0.01,weatherlink.com 1.10,2013-03-20 09:44:00,
2013-03-20 02:59:00,49.5,48.0,30.09,SSE,163,0.0,-999.0,94,-99.99,,,0.01,weatherlink.com 1.10,2013-03-20 09:59:00,
2013-03-20 03:14:00,49.8,48.0,30.09,SSE,163,0.0,-999.0,94,-99.99,,,0.01,weatherlink.com 1.10,2013-03-20 10:14:00,
2013-03-20 03:29:00,49.9,48.0,30.08,SSE,163,0.0,-999.0,94,-99.99,,,0.01,weatherlink.com 1.10,2013-03-20 10:29:00,
2013-03-20 03:44:00,50.1,49.0,30.08,SSE,163,0.0,-999.0,94,-99.99,,,0.01,weatherlink.com 1.10,2013-03-20 10:44:00,
2013-03-20 03:59:00,50.1,49.0,30.09,SSE,163,0.0,-999.0,95,-99.99,,,0.02,weatherlink.com 1.10,2013-03-20 10:59:00,
2013-03-20 04:14:00,50.2,49.0,30.09,SSE,163,0.0,-999.0,95,-99.99,,,0.02,weatherlink.com 1.10,2013-03-20 11:14:00,
2013-03-20 04:29:00,50.2,49.0,30.08,SSE,163,0.0,-999.0,95,-99.99,,,0.02,weatherlink.com 1.10,2013-03-20 11:29:00,
2013-03-20 04:44:00,50.2,49.0,30.07,SSE,163,0.0,-999.0,95,-99.99,,,0.02,weatherlink.com 1.10,2013-03-20 11:44:00,
2013-03-20 04:59:00,50.2,49.0,30.07,SSE,163,0.0,-999.0,95,-99.99,,,0.02,weatherlink.com 1.10,2013-03-20 11:59:00,
2013-03-20 05:14:00,50.4,49.0,30.07,SSE,163,0.0,-999.0,95,-99.99,,,0.02,weatherlink.com 1.10,2013-03-20 12:14:00,
2013-03-20 05:29:00,50.4,49.0,30.06,SSE,163,0.0,-999.0,95,-99.99,,,0.02,weatherlink.com 1.10,2013-03-20 12:29:00,
2013-03-20 05:44:00,50.4,49.0,30.06,SSE,163,0.0,-999.0,95,-99.99,,,0.02,weatherlink.com 1.10,2013-03-20 12:44:00,
2013-03-20 05:59:00,50.5,49.0,30.06,SSE,163,0.0,-999.0,95,-99.99,,,0.02,weatherlink.com 1.10,2013-03-20 12:59:00,
2013-03-20 06:14:00,50.4,49.0,30.06,SSE,163,0.0,-999.0,95,-99.99,,,0.02,weatherlink.com 1.10,2013-03-20 13:14:00,
2013-03-20 06:29:00,50.4,49.0,30.06,SSE,163,0.0,-999.0,95,-99.99,,,0.02,weatherlink.com 1.10,2013-03-20 13:29:00,
2013-03-20 06:44:00,50.4,49.0,30.06,SSE,163,0.0,-999.0,96,-99.99,,,0.02,weatherlink.com 1.10,2013-03-20 13:44:00,
2013-03-20 06:59:00,50.5,49.0,30.06,SSE,163,0.0,-999.0,96,-99.99,,,0.02,weatherlink.com 1.10,2013-03-20 13:59:00,
2013-03-20 07:14:00,50.7,50.0,30.07,SSE,163,0.0,-999.0,96,-99.99,,,0.02,weatherlink.com 1.10,2013-03-20 14:14:00,
2013-03-20 07:29:00,50.8,50.0,30.06,SSE,163,0.0,-999.0,96,-99.99,,,0.02,weatherlink.com 1.10,2013-03-20 14:29:00,
2013-03-20 07:44:00,51.0,50.0,30.06,SSE,163,0.0,-999.0,96,-99.99,,,0.02,weatherlink.com 1.10,2013-03-20 14:44:00,
2013-03-20 07:59:00,51.7,51.0,30.07,SE,126,0.0,-999.0,96,-99.99,,,0.02,weatherlink.com 1.10,2013-03-20 14:59:00,
2013-03-20 08:14:00,52.2,51.0,30.06,ESE,117,0.0,-999.0,95,-99.99,,,0.02,weatherlink.com 1.10,2013-03-20 15:14:00,
2013-03-20 08:29:00,52.5,51.0,30.07,SSE,161,0.0,-999.0,93,-99.99,,,0.02,weatherlink.com 1.10,2013-03-20 15:29:00,
2013-03-20 08:44:00,52.6,50.0,30.07,SE,130,0.0,-999.0,91,-99.99,,,0.02,weatherlink.com 1.10,2013-03-20 15:44:00,
2013-03-20 08:59:00,53.2,48.0,30.08,ESE,116,0.0,-999.0,83,-99.99,,,0.02,weatherlink.com 1.10,2013-03-20 15:59:00,
2013-03-20 09:14:00,54.1,46.0,30.08,ESE,121,0.0,-999.0,74,-99.99,,,0.02,weatherlink.com 1.10,2013-03-20 16:14:00,
2013-03-20 09:29:00,54.8,44.0,30.08,East,99,1.0,-999.0,68,-99.99,,,0.02,weatherlink.com 1.10,2013-03-20 16:29:00,
2013-03-20 09:44:00,56.0,45.0,30.08,SSE,147,0.0,-999.0,66,-99.99,,,0.02,weatherlink.com 1.10,2013-03-20 16:44:00,
2013-03-20 09:59:00,57.2,47.0,30.08,SW,222,0.0,-999.0,70,-99.99,,,0.02,weatherlink.com 1.10,2013-03-20 16:59:00,
2013-03-20 10:15:00,57.5,47.0,30.08,South,190,0.0,-999.0,68,-99.99,,,0.02,weatherlink.com 1.10,2013-03-20 17:15:00,
2013-03-20 10:30:00,58.3,48.0,30.09,South,190,0.0,-999.0,68,-99.99,,,0.02,weatherlink.com 1.10,2013-03-20 17:30:00,
2013-03-20 10:45:00,59.0,47.0,30.09,SW,224,0.0,-999.0,65,-99.99,,,0.02,weatherlink.com 1.10,2013-03-20 17:45:00,
2013-03-20 11:00:00,59.5,48.0,30.09,NE,52,0.0,-999.0,65,-99.99,,,0.02,weatherlink.com 1.10,2013-03-20 18:00:00,
2013-03-20 11:15:00,59.0,48.0,30.09,WSW,246,2.0,-999.0,66,-99.99,,,0.02,weatherlink.com 1.10,2013-03-20 18:15:00,
2013-03-20 11:30:00,59.0,48.0,30.09,SSW,207,1.0,-999.0,67,-99.99,,,0.02,weatherlink.com 1.10,2013-03-20 18:30:00,
2013-03-20 11:45:00,58.4,49.0,30.10,SSW,213,0.0,-999.0,70,-99.99,,,0.02,weatherlink.com 1.10,2013-03-20 18:45:00,
2013-03-20 12:00:00,58.0,50.0,30.11,SSE,154,0.0,-999.0,76,-99.99,,,0.02,weatherlink.com 1.10,2013-03-20 19:00:00,
2013-03-20 12:15:00,57.6,51.0,30.11,SSE,163,0.0,-999.0,78,-99.99,,,0.02,weatherlink.com 1.10,2013-03-20 19:15:00,
2013-03-20 12:30:00,57.8,52.0,30.11,South,171,0.0,-999.0,80,-99.99,,,0.02,weatherlink.com 1.10,2013-03-20 19:30:00,
2013-03-20 12:45:00,58.0,53.0,30.11,South,171,1.0,-999.0,83,-99.99,,,0.02,weatherlink.com 1.10,2013-03-20 19:45:00,
2013-03-20 13:00:00,57.0,53.0,30.11,SSE,153,0.0,-999.0,86,-99.99,,,0.03,weatherlink.com 1.10,2013-03-20 20:00:00,
2013-03-20 13:15:00,56.7,53.0,30.11,SSW,210,3.0,-999.0,88,-99.99,,,0.03,weatherlink.com 1.10,2013-03-20 20:15:00,
2013-03-20 13:30:00,56.5,54.0,30.10,SSE,147,2.0,-999.0,90,-99.99,,,0.04,weatherlink.com 1.10,2013-03-20 20:30:00,
2013-03-20 13:46:00,56.7,55.0,30.09,SW,215,0.0,-999.0,92,-99.99,,,0.06,weatherlink.com 1.10,2013-03-20 20:46:00,
2013-03-20 14:01:00,57.2,55.0,30.09,SSE,155,2.0,-999.0,93,-99.99,,,0.07,weatherlink.com 1.10,2013-03-20 21:01:00,
2013-03-20 14:15:00,57.0,55.0,30.09,SSE,156,2.0,-999.0,93,-99.99,,,0.07,weatherlink.com 1.10,2013-03-20 21:15:00,
2013-03-20 14:30:00,57.2,55.0,30.09,SW,225,2.0,-999.0,93,-99.99,,,0.07,weatherlink.com 1.10,2013-03-20 21:30:00,
2013-03-20 14:46:00,56.9,55.0,30.09,SSW,213,0.0,-999.0,93,-99.99,,,0.07,weatherlink.com 1.10,2013-03-20 21:46:00,
2013-03-20 15:01:00,56.7,55.0,30.09,WSW,255,0.0,-999.0,94,-99.99,,,0.07,weatherlink.com 1.10,2013-03-20 22:01:00,
2013-03-20 15:16:00,56.5,55.0,30.09,NNE,30,2.0,-999.0,94,-99.99,,,0.07,weatherlink.com 1.10,2013-03-20 22:16:00,
2013-03-20 15:46:00,56.0,54.0,30.09,SW,226,0.0,-999.0,94,-99.99,,,0.07,weatherlink.com 1.10,2013-03-20 22:46:00,
2013-03-20 16:01:00,56.2,54.0,30.10,SSE,161,3.0,-999.0,93,-99.99,,,0.07,weatherlink.com 1.10,2013-03-20 23:01:00,
2013-03-20 16:16:00,56.0,54.0,30.09,SW,221,3.0,-999.0,93,-99.99,,,0.07,weatherlink.com 1.10,2013-03-20 23:16:00,
2013-03-20 16:31:00,55.7,54.0,30.09,WSW,250,0.0,-999.0,93,-99.99,,,0.07,weatherlink.com 1.10,2013-03-20 23:31:00,
2013-03-20 16:45:00,55.6,53.0,30.09,SW,232,0.0,-999.0,92,-99.99,,,0.07,weatherlink.com 1.10,2013-03-20 23:45:00,
2013-03-20 17:00:00,55.6,53.0,30.09,SE,130,0.0,-999.0,92,-99.99,,,0.07,weatherlink.com 1.10,2013-03-21 00:00:00,
2013-03-20 17:16:00,55.3,53.0,30.09,South,171,0.0,-999.0,92,-99.99,,,0.07,weatherlink.com 1.10,2013-03-21 00:16:00,
2013-03-20 17:31:00,55.3,53.0,30.09,SW,219,0.0,-999.0,92,-99.99,,,0.07,weatherlink.com 1.10,2013-03-21 00:31:00,
2013-03-20 17:46:00,55.3,53.0,30.09,SW,219,0.0,-999.0,92,-99.99,,,0.07,weatherlink.com 1.10,2013-03-21 00:46:00,
2013-03-20 18:01:00,55.0,53.0,30.09,West,263,0.0,-999.0,91,-99.99,,,0.07,weatherlink.com 1.10,2013-03-21 01:01:00,
2013-03-20 18:16:00,55.0,53.0,30.09,SSE,154,0.0,-999.0,92,-99.99,,,0.07,weatherlink.com 1.10,2013-03-21 01:16:00,
2013-03-20 18:46:00,54.7,53.0,30.10,SSE,164,0.0,-999.0,92,-99.99,,,0.07,weatherlink.com 1.10,2013-03-21 01:46:00,
2013-03-20 19:16:00,54.4,52.0,30.11,SSW,205,0.0,-999.0,92,-99.99,,,0.07,weatherlink.com 1.10,2013-03-21 02:16:00,
2013-03-20 19:46:00,54.1,52.0,30.11,SE,142,0.0,-999.0,93,-99.99,,,0.07,weatherlink.com 1.10,2013-03-21 02:46:00,
2013-03-20 20:01:00,53.8,52.0,30.11,SE,142,0.0,-999.0,93,-99.99,,,0.07,weatherlink.com 1.10,2013-03-21 03:01:00,
2013-03-20 20:16:00,53.6,52.0,30.11,South,180,0.0,-999.0,93,-99.99,,,0.07,weatherlink.com 1.10,2013-03-21 03:16:00,
2013-03-20 20:31:00,53.6,52.0,30.12,South,180,0.0,-999.0,94,-99.99,,,0.07,weatherlink.com 1.10,2013-03-21 03:31:00,
2013-03-20 20:46:00,53.6,52.0,30.12,South,180,0.0,-999.0,94,-99.99,,,0.07,weatherlink.com 1.10,2013-03-21 03:46:00,
2013-03-20 21:01:00,53.3,52.0,30.12,South,180,0.0,-999.0,94,-99.99,,,0.07,weatherlink.com 1.10,2013-03-21 04:01:00,
2013-03-20 21:16:00,53.3,52.0,30.12,South,180,0.0,-999.0,94,-99.99,,,0.07,weatherlink.com 1.10,2013-03-21 04:16:00,
2013-03-20 21:31:00,53.5,52.0,30.13,South,180,0.0,-999.0,94,-99.99,,,0.07,weatherlink.com 1.10,2013-03-21 04:31:00,
2013-03-20 21:46:00,53.5,52.0,30.13,South,180,0.0,-999.0,94,-99.99,,,0.07,weatherlink.com 1.10,2013-03-21 04:46:00,
2013-03-20 22:02:00,53.3,52.0,30.14,South,170,0.0,-999.0,94,-99.99,,,0.07,weatherlink.com 1.10,2013-03-21 05:02:00,
2013-03-20 22:16:00,53.3,52.0,30.13,South,182,0.0,-999.0,94,-99.99,,,0.07,weatherlink.com 1.10,2013-03-21 05:16:00,
2013-03-20 22:47:00,53.3,52.0,30.13,SSE,159,0.0,-999.0,95,-99.99,,,0.07,weatherlink.com 1.10,2013-03-21 05:47:00,
2013-03-20 23:02:00,53.3,52.0,30.12,SSE,159,0.0,-999.0,95,-99.99,,,0.07,weatherlink.com 1.10,2013-03-21 06:02:00,
2013-03-20 23:17:00,53.2,52.0,30.12,SSE,159,0.0,-999.0,94,-99.99,,,0.07,weatherlink.com 1.10,2013-03-21 06:17:00,
2013-03-20 23:32:00,53.1,52.0,30.12,SE,130,0.0,-999.0,94,-99.99,,,0.07,weatherlink.com 1.10,2013-03-21 06:32:00,
2013-03-20 23:47:00,52.8,51.0,30.12,WSW,244,0.0,-999.0,93,-99.99,,,0.07,weatherlink.com 1.10,2013-03-21 06:47:00,